Regional Weather Roundup
Issued by NWS Sterling, VA

Home | Current Version | Previous Version | Graphics & Text | Print | Product List | Glossary On
Versions: 1 2 3 4 5 6 7 8 9 10 11 12 13 14 15 16 17 18 19 20 21 22 23 24 25 26 27 28 29 30 31 32 33 34 35 36 37 38 39 40 41 42 43 44 45 46 47 48 49 50
000
ASUS41 KLWX 040710
RWRLWX

REGIONAL WEATHER ROUNDUP
NATIONAL WEATHER SERVICE BALTIMORE MD/WASHINGTON DC
200 AM EST WED MAR 04 2015

Note: "FAIR" indicates few or no clouds below 12,000 feet
with no significant weather and/or obstructions to visibility.
 TC=TEMPERATURE CELSIUS

 * =Non NWS site. Station does not report precipitation (e.g. rain,
    snow, etc.), thunder, or fog.

DCZ001-MDZ009-015-VAZ040>042-051-053>054-040800-
WASHINGTON METRO

CITY           SKY/WX    TMP DP  RH WIND       PRES   REMARKS
WASHINGTON NAT CLOUDY    42  34  73 S9        29.84S
DULLES         CLOUDY    37  32  82 S12       29.81F
ANDREWS AFB    CLOUDY    40  37  88 SW12      29.81F
FT BELVOIR     CLOUDY    40  35  83 VRB3      29.83F
QUANTICO       CLOUDY    42  35  76 SW9       29.86F
COLLEGE PARK*  CLOUDY    41  36  81 S3        29.82S
LEESBURG*      CLOUDY    37  36  93 N12       29.85R
MANASSAS*      CLOUDY    39  36  87 S7        29.83F
GAITHERSBURG*  CLOUDY    36  30  80 SW3       29.84F

$$

MDZ006>007-011-014-040800-
BALTIMORE METRO

CITY           SKY/WX    TMP DP  RH WIND       PRES   REMARKS
BWI AIRPORT    CLOUDY    38  35  89 SW9       29.81R
MD SCIENCE CTR   N/A     37  34  89 MISG      29.82F
MARTIN STATE   PTCLDY    34  32  93 CALM      29.83F FOG
ANNAPOLIS      CLOUDY    40  37  89 SW5       29.82F
FORT MEADE*    CLOUDY    37  34  87 SW9       29.83S

$$

MDZ012-015-019>023-040800-
MARYLAND EASTERN SHORE

CITY           SKY/WX    TMP DP  RH WIND       PRES   REMARKS
OCEAN CITY     CLOUDY    42  41  96 SW15      29.89F FOG
SALISBURY      LGT RAIN  43  40  89 SW15G29   29.88F FOG
BAY BRIDGE AP*   N/A     41  37  87 S8        29.83F
CAMBRIDGE*     CLOUDY    41  37  87 S13G18    29.84F
EASTON*        CLOUDY    43  43 100 SW15      29.86F

$$

MDZ017>025-040800-
SOUTHERN MARYLAND

CITY           SKY/WX    TMP DP  RH WIND       PRES   REMARKS
PATUXENT RIVER LGT RAIN  43  39  86 SW20G29   29.86F
ST INIGOES     LGT RAIN  41  36  82 S14       29.88F
LEONARDTOWN*   CLOUDY    41  37  87 SW14G21   29.87F

$$

MDZ003>005-040800-
NORTH CENTRAL MARYLAND

CITY           SKY/WX    TMP DP  RH WIND       PRES   REMARKS
FREDERICK*     DRIZZLE   36  32  87 S6        29.87R
HAGERSTOWN APT CLOUDY    33  31  92 E3        29.79F FOG
WESTMINSTER*   RAIN      36  32  87 SW6       29.82R

$$

MDZ501>502-040800-
WESTERN MARYLAND

CITY           SKY/WX    TMP DP  RH WIND       PRES   REMARKS
OAKLAND*       FOG       43 N/A N/A W14G22    29.77S VSB 1
CUMBERLAND*    CLOUDY    34  34 100 S3          N/A

$$

VAZ025>031-040800-
SHENANDOAH VALLEY

CITY           SKY/WX    TMP DP  RH WIND       PRES   REMARKS
WINCHESTER*    RAIN      43  34  70 NW8       29.81R
FRONT ROYAL*   FAIR      46  41  81 SW9G16    29.76S
LURAY*         CLOUDY    46  41  81 SW14      29.79F
NEW MARKET*    FAIR      40  36  84 W12       29.80S
STAUNTON*      CLOUDY    40  36  83 S8        29.84F
WAYNESBORO*    CLOUDY    39  38  95 CALM      29.82F

$$

WVZ021-048>050-054>055-040800-
EASTERN WEST VIRGINIA PANHANDLE

CITY           SKY/WX    TMP DP  RH WIND       PRES   REMARKS
MARTINSBURG    CLOUDY    37  33  85 S5        29.80R FOG
PETERSBURG*    NOT AVBL

$$

VAZ036>039-050-040800-
CENTRAL FOOTHILLS

CITY           SKY/WX    TMP DP  RH WIND       PRES   REMARKS
CHARLOTTESVILL CLOUDY    38  34  85 SW10      29.85F
CULPEPER*      CLOUDY    39  36  87 S8        29.84F
ORANGE*        CLOUDY    39  36  87 S12G20    29.87F
GORDONSVILLE*  CLOUDY    37  34  89 SW13G22   29.86F
WARRENTON*     CLOUDY    40  38  94 S9        29.82F

$$

VAZ055>057-040800-
NORTH AND CENTRAL PIEDMONT

CITY           SKY/WX    TMP DP  RH WIND       PRES   REMARKS
FREDERICKSBRG* MOCLDY    42  38  84 SW14G21   29.86F
STAFFORD*      CLOUDY    40  35  81 SW9G16    29.89F

$$

NCZ024-NYZ072-PAZ021-071-VAZ022-071-040800-
OTHER REGIONAL OBSERVATIONS

CITY           SKY/WX    TMP DP  RH WIND       PRES   REMARKS
NEW YORK CITY  CLOUDY    36  31  82 VRB3      29.81F
PHILADELPHIA   DRIZZLE   34  32  92 SW6       29.83F FOG
PITTSBURGH     LGT RAIN  41  38  89 W12       29.78S
ROANOKE        CLOUDY    37  35  92 CALM      29.93F FOG
RICHMOND       CLOUDY    42  40  92 S8        29.92F FOG
RALEIGH        FOG       39  37  92 SW9       30.04F VSB 1/2

$$

ANZ530>537-040800-
MARINE OBSERVATIONS

STATION/POSITION TIME  TEMP    WIND        PRES
                       AIR SEA DIR/SP/G
                 (UTC) (F)     (DEG/KT/KT) (MB)
THOMAS PT LIGHT  0700   37 31  200/ 10/ 10 1011.2F
BALT KEY BRIDGE  0600   36     150/  3/  4 1009.8F
COVE POINT       0600   42     240/ 20/ 28 1011.3F
LEWISETTA        0600   41 33  230/ 13/ 15 1012.5F
SOLOMONS ISLAND  0600      33                N/A

$$



USA.gov is the U.S. government's official web portal to all federal, state and local government web resources and services.